World > North America > United States > New York

Hourly Rockwood, NY Regional Weather

Feedback E-mail the Weather

Quick WX

Rockwood, NY Weather Maps

°F °C°F °C
Rockwood Weather Map
UTC Time: 7/2/2022, 11:00
Your Time:

Rockwood, NY Regional Weather

Expires:202207021100;;544597
ASUS41 KALY 021010
RWRALY

NEW YORK STATE HOURLY WEATHER ROUNDUP
NATIONAL WEATHER SERVICE ALBANY NY
600 AM EDT SAT JUL 02 2022

NOTE: "FAIR" INDICATES FEW OR NO CLOUDS BELOW 12,000 FEET WITH NO
SIGNIFICANT WEATHER AND/OR NO OBSTRUCTIONS TO VISIBILITY.


NYZ032-033-038>043-046>054-057>066-NYZ062>081-082-084-021100-
EAST

  
CITY           SKY/WX    TMP DP  RH WIND       PRES   REMARKS
ALBANY         CLOUDY    69  66  90 S7        29.89R                  
GLENS FALLS    LGT RAIN  67  66  97 S9        29.86R FOG              
POUGHKEEPSIE   CLOUDY    69  67  93 CALM      29.89R                  
NEWBURGH       MOCLDY    68  66  94 W6        29.90F                  
MONTGOMERY     CLOUDY    66  66 100 CALM      29.90R                  
WHITE PLAINS   CLOUDY    74  71  91 NW5       29.90S                  
ISLIP          CLOUDY    73  71  93 SW13      29.90S                  
NEW YORK CITY  CLOUDY    79  68  69 SW9       29.89S                  
CENTRAL PARK   CLOUDY    74  70  87 SW6       29.93S                  
$$


SKY/WX - Weather  TMP - Temperature  DP - Dew Point  RH - Humidity
WIND - Wind Direction/Speed PRES - Barometric Pressure VSB - Visibility
WCI - Wind Chill Index E13G22 Wind - East Wind 13 mph/Gusts of 22 mph

Trending Headlines

Rockwood Radar Loop



Rockwood Quick Facts


National Two Day Weather Forecast


E-mail the Rockwood Weather Forecast

Voice your opinion or tell us about page issues...